Location: Unspecified
(0.0000°N, 0.0000°E)
Time: 04:52:59
(UTC+00:00)

Vanguard 3 - Visible Passes

Search period start: 01 October 2016 00:00
Search period end: 11 October 2016 00:00
Orbit: 508 x 3267 km, 33.4° (Epoch: 30 September)

Date Brightness Start Highest point End Pass type
(mag) Time Alt. Az. Time Alt. Az. Time Alt. Az.
01 Oct 11.1 02:34:08 17° NNW 02:36:41 18° N 02:48:12 10° NNE visible
01 Oct 11.3 04:46:13 10° NNW 05:00:02 22° NNE 05:12:05 10° ENE visible
01 Oct 9.5 20:38:18 10° SW 20:39:49 21° SW 20:39:49 21° SW visible
02 Oct 11.2 01:24:35 16° NNE 01:24:35 16° NNE 01:29:50 10° NNE visible
02 Oct 11.2 03:29:17 10° NNW 03:41:05 18° N 03:52:52 10° NE visible
02 Oct 8.3 19:26:20 10° SSW 19:30:41 34° SE 19:30:41 34° SE visible
03 Oct 11.1 02:19:39 16° N 02:21:53 17° N 02:32:45 10° NE visible
03 Oct 11.2 04:30:05 10° NNW 04:44:52 25° NNE 04:58:00 10° ENE visible
03 Oct 9.0 18:16:18 10° SSE 18:18:06 12° SE 18:20:08 10° ESE visible
03 Oct 8.9 20:23:39 10° SW 20:26:14 33° WSW 20:26:14 33° WSW visible
04 Oct 11.3 01:10:10 13° NNE 01:10:10 13° NNE 01:13:20 10° NNE visible
04 Oct 11.2 03:14:46 11° NNW 03:26:07 20° NNE 03:38:30 10° NE visible
04 Oct 7.8 19:11:27 10° SSW 19:16:02 42° SE 19:17:10 39° ESE visible
05 Oct 11.2 02:05:20 16° N 02:07:05 16° N 02:17:30 10° NE visible
05 Oct 11.2 04:13:55 10° NNW 04:29:32 28° NNE 04:43:42 10° ENE visible
05 Oct 8.2 20:09:08 10° WSW 20:12:46 48° W 20:12:46 48° W visible
06 Oct 11.4 00:55:56 11° NNE 00:55:56 11° NNE 00:56:51 10° NNE visible
06 Oct 11.1 03:00:33 13° NNW 03:11:01 21° NNE 03:24:08 10° ENE visible
06 Oct 10.8 05:13:19 10° NW 05:31:45 43° NNE 05:46:24 10° E visible
06 Oct 7.3 18:56:40 10° SW 19:01:01 55° SE 19:03:45 31° ENE visible
06 Oct 10.2 21:08:18 10° W 21:08:23 10° W 21:08:23 10° W visible
07 Oct 11.2 01:51:13 16° N 01:52:16 16° N 02:02:28 10° NE visible
07 Oct 11.1 03:57:47 10° NNW 04:14:01 31° NNE 04:29:13 10° E visible
07 Oct 8.0 19:54:44 10° WSW 19:59:21 49° NW 19:59:21 49° NW visible
08 Oct 11.1 02:46:34 16° NNW 02:55:48 23° NNE 03:09:40 10° ENE visible
08 Oct 10.7 04:56:57 10° NW 05:15:54 49° NNE 05:31:34 10° ESE visible
08 Oct 6.8 18:41:57 10° SW 18:46:05 76° SE 18:50:20 20° ENE visible
08 Oct 10.0 20:54:29 10° WNW 20:54:58 12° WNW 20:54:58 12° WNW visible
09 Oct 11.2 01:37:22 16° NNE 01:37:23 16° NNE 01:47:36 10° NE visible
09 Oct 10.9 03:41:59 11° NNW 03:58:19 35° NNE 04:14:29 10° E visible
09 Oct 8.4 19:40:30 10° W 19:44:51 34° NNW 19:45:56 32° N visible
10 Oct 10.9 02:32:51 19° N 02:40:25 25° NNE 02:55:03 10° ENE visible
10 Oct 10.6 04:40:41 10° NW 04:59:52 56° NE 05:16:32 10° ESE visible
10 Oct 6.8 18:27:19 10° WSW 18:31:15 75° NW 18:36:53 11° NE visible
10 Oct 10.0 20:41:04 10° NW 20:41:31 11° NW 20:41:31 11° NW visible
